Terminal Aerodrome Forecast
Issued by NWS

Home | Current Version | Previous Version | Text Only | Print | Product List | Glossary On
Versions: 1 2 3 4 5 6 7 8 9 10 11 12 13 14 15 16 17 18 19 20 21 22 23 24 25 26 27 28 29 30 31 32 33 34 35 36 37 38 39 40 41 42 43 44 45 46 47 48
000
FTUS45 KSLC 221728
TAFEVW
TAF
KEVW 221728Z 2218/2318 36004KT P6SM BKN100
     FM221900 23016G25KT P6SM BKN080
     FM230000 27010G18KT P6SM -SHRA VCTS BKN040CB OVC060
     FM230200 32010KT 5SM -RA BR OVC030
     FM230500 VRB05KT P6SM -SHRA BKN040 OVC060
     FM231500 24009KT P6SM -SHRA BKN040 OVC060=

USA.gov is the U.S. government's official web portal to all federal, state and local government web resources and services.